Wind_Speed
33 33 34 34 35 35 35 35 34 34 34 33 33 34 35 35 36 36 37 37 38 38 37 36 36 35 34 33 31 29 28 28 28 29 29 29 29 29 29 29 29 29 29 29 30 31 30 30 28 27 26 25 25 24 24 24 24 25 26 28 28 26 25 24 24 24 25 26 27 27 26 25 24 24 23 23 22 21 21 22 23 24 25 25 24 23
33 33 33 34 34 34 34 34 34 33 34 33 33 33 34 34 34 34 34 34 35 35 34 33 32 31 31 30 29 29 28 28 28 29 29 29 29 29 29 29 29 29 29 30 30 30 30 29 28 27 26 25 25 24 24 24 24 25 27 28 28 26 24 24 24 24 25 26 27 27 26 25 25 25 24 24 23 22 21 21 22 24 24 24 23 23
32 32 32 32 32 32 32 32 31 32 32 32 31 31 31 31 31 31 31 31 31 31 30 29 28 27 27 27 27 27 27 28 28 29 29 29 29 29 28 28 29 29 29 30 30 30 29 28 27 26 26 25 25 24 24 24 24 26 28 29 28 25 24 24 24 25 26 27 27 27 26 25 25 25 25 25 24 22 21 21 22 23 24 24 24 24
31 31 31 31 30 30 30 29 29 29 29 29 28 28 28 28 28 28 28 28 28 29 28 27 26 25 25 25 25 26 27 28 29 29 29 29 29 29 28 28 28 29 29 29 30 29 29 28 27 26 26 25 25 24 24 24 26 28 29 29 27 24 23 24 25 26 26 27 27 27 25 24 24 25 26 25 25 23 22 22 22 23 24 24 24 24
31 30 30 29 29 28 28 27 27 26 26 26 26 26 26 26 26 26 27 27 27 27 27 26 26 25 25 25 26 27 28 29 30 31 31 30 30 29 29 28 28 29 29 29 29 29 28 28 27 26 26 25 24 24 24 25 27 29 30 28 26 24 24 25 26 26 27 28 27 26 24 24 24 25 26 26 26 24 23 22 22 22 23 24 23 23
30 30 29 28 27 27 26 26 25 25 25 25 25 25 25 25 25 25 26 26 26 26 26 26 26 26 26 26 27 28 30 31 32 32 32 31 31 30 29 29 29 29 29 29 29 29 28 27 26 26 25 25 24 24 25 27 29 30 29 27 25 24 25 26 26 27 28 28 27 26 24 23 24 24 25 26 26 25 24 23 22 22 22 23 23 23
30 29 29 28 27 26 26 25 25 25 24 25 25 25 25 25 25 25 25 26 26 26 26 26 26 26 27 27 28 29 30 31 32 32 32 31 31 30 29 29 29 29 29 29 28 28 27 27 26 26 25 25 25 26 28 30 30 29 28 26 25 25 26 26 27 28 28 28 27 26 24 23 24 24 25 26 26 26 25 23 22 21 22 22 22 22
30 29 28 27 27 26 26 25 25 25 25 25 25 25 25 25 25 25 26 26 26 26 27 27 27 27 27 27 28 29 30 30 30 30 30 30 29 29 29 29 29 28 28 28 27 27 26 26 26 26 25 25 27 29 30 31 30 28 27 27 26 26 26 27 28 28 28 28 27 26 24 24 24 24 25 26 26 26 25 24 22 21 21 21 21 21
30 29 28 27 27 27 26 26 25 25 25 26 26 26 26 25 25 26 26 26 26 27 27 27 27 27 27 27 27 28 28 28 28 27 27 27 27 27 27 27 28 28 27 27 26 26 27 27 27 27 27 28 30 31 32 31 30 29 28 27 27 26 26 27 28 29 29 28 27 26 25 24 24 24 25 26 26 26 25 24 22 21 21 20 20 20
31 30 29 28 27 27 27 27 26 26 26 27 27 27 26 26 26 26 26 26 26 27 27 27 27 27 27 27 27 27 27 26 26 25 25 24 24 25 25 26 26 26 26 26 26 27 27 28 28 28 29 31 32 33 33 32 30 30 29 28 27 26 27 28 29 29 29 28 27 26 25 24 24 24 25 26 26 26 25 23 22 21 21 20 20 20
31 30 30 29 28 28 27 27 27 26 27 27 28 28 27 27 27 27 27 27 27 27 27 27 27 27 27 26 26 26 26 25 25 24 23 23 23 24 24 24 25 25 25 26 26 27 28 28 29 30 31 32 33 34 33 32 31 29 28 27 26 27 28 29 30 30 29 28 27 26 25 24 24 25 25 26 26 25 24 23 22 21 21 20 20 20
32 32 31 31 30 29 28 28 28 28 28 28 28 28 28 27 28 28 28 28 27 27 27 27 27 27 26 26 26 25 25 24 24 23 23 23 23 23 23 23 23 24 24 25 25 26 27 28 29 30 31 32 33 32 32 31 29 28 27 26 26 28 29 30 30 30 29 27 26 25 24 24 24 25 25 25 25 24 23 22 21 21 21 20 20 20
34 33 33 33 32 31 30 30 29 29 29 29 29 29 29 29 28 29 29 28 27 27 27 27 27 27 26 26 25 25 24 23 23 22 22 22 22 22 22 22 22 22 23 23 24 24 25 26 27 29 30 30 30 30 29 29 28 27 26 27 28 29 30 30 30 29 28 27 26 25 24 24 25 25 25 25 24 23 23 22 21 21 21 20 20 20
36 35 35 35 34 33 33 32 32 31 31 30 30 30 30 30 29 29 29 29 28 27 27 27 27 27 26 26 25 25 24 23 22 22 21 21 21 21 21 21 21 21 22 22 23 23 24 25 26 27 28 28 28 28 28 27 27 27 27 28 29 30 30 30 29 28 27 26 25 25 25 25 25 25 24 24 23 23 22 21 21 21 20 20 20 19
38 38 38 37 37 36 35 35 34 34 33 32 31 31 31 31 30 30 30 29 29 28 28 27 27 27 26 26 25 25 24 23 22 22 21 21 21 21 21 21 21 21 22 23 23 23 24 24 25 26 26 26 27 27 27 27 28 28 29 30 30 30 30 29 28 27 26 25 25 25 25 25 25 24 24 23 22 22 21 21 20 20 20 20 20 19
40 40 40 40 39 38 37 37 36 36 35 34 33 32 32 31 31 30 30 30 30 29 29 28 27 27 27 26 26 25 25 24 23 22 22 22 22 22 22 22 22 23 23 23 24 24 24 24 25 25 25 26 26 26 26 27 28 29 29 29 29 29 28 28 27 26 25 24 24 25 25 24 24 23 23 22 22 21 21 20 20 20 20 20 20 19
41 42 42 42 41 40 40 39 38 37 36 35 34 33 32 32 31 31 31 31 31 31 30 30 29 28 27 27 27 26 25 25 24 23 23 22 22 23 23 23 23 23 24 24 25 25 25 25 25 25 25 26 26 26 27 28 28 28 28 28 28 28 27 26 25 24 24 24 24 24 24 24 23 23 22 22 21 21 20 20 20 20 20 20 19 19
42 42 42 43 42 42 41 41 40 38 37 36 35 34 33 32 32 32 32 32 32 32 32 32 31 30 29 27 27 26 26 25 25 24 24 23 23 23 23 24 24 24 25 25 25 25 25 25 25 25 25 26 27 27 28 29 29 29 29 28 28 27 26 25 24 23 23 23 24 24 23 23 22 22 21 21 20 20 20 20 20 19 19 19 19 19
41 42 42 42 42 42 42 41 40 38 37 35 35 34 33 33 33 32 32 32 32 32 32 32 32 32 31 29 28 28 27 27 26 25 25 24 24 25 25 25 25 25 25 25 26 26 26 25 25 25 25 26 27 28 29 30 30 31 30 30 29 27 26 24 23 23 23 23 23 23 22 22 22 21 21 20 20 19 19 19 19 19 19 19 19 19
41 41 41 41 41 42 41 40 39 37 36 35 35 35 34 34 33 33 32 32 31 31 31 31 31 31 31 30 30 29 29 29 28 28 27 27 26 27 27 26 25 25 26 26 27 27 26 25 24 24 25 26 26 27 28 29 30 31 30 30 28 27 25 24 23 23 23 23 22 22 22 21 21 20 20 20 19 19 19 19 19 19 19 19 19 19
40 40 39 40 40 40 40 38 37 36 35 35 35 35 34 34 33 33 32 31 31 31 30 30 30 29 30 30 30 30 30 30 30 30 29 29 28 28 28 27 26 26 27 27 28 27 26 25 24 25 25 26 26 27 27 28 29 29 29 28 27 26 25 24 24 23 23 22 22 21 21 21 20 20 19 19 19 19 18 18 19 19 19 19 19 19
40 39 39 39 39 39 38 37 36 35 35 35 34 34 34 33 33 32 32 31 31 30 30 29 29 29 29 30 30 30 31 31 32 31 31 30 30 29 29 28 28 27 28 29 29 28 27 26 26 26 26 27 27 27 27 27 27 27 27 27 26 25 25 24 23 23 22 22 21 21 20 20 19 19 19 18 18 18 18 18 18 18 18 18 18 18
40 39 39 38 38 38 37 36 36 35 35 34 34 33 33 33 33 32 32 32 31 30 30 29 29 29 29 30 30 30 31 31 32 32 31 30 30 29 29 29 29 29 30 30 31 30 29 28 27 27 28 28 28 27 26 26 26 26 26 25 25 25 24 24 23 22 21 21 20 20 20 19 19 18 18 18 18 18 18 18 18 18 18 18 18 18
40 39 38 38 37 37 36 36 35 35 34 34 34 33 33 33 33 33 33 32 31 31 30 29 29 29 29 29 30 30 30 30 31 31 31 30 29 29 29 29 30 30 31 31 31 31 30 29 28 28 28 28 28 27 26 26 25 25 25 25 25 24 24 23 22 21 21 20 20 19 19 19 18 18 18 18 18 18 18 18 18 18 17 17 17 17
39 39 38 37 36 36 36 36 35 35 35 34 34 34 34 34 34 34 33 32 31 30 30 29 29 29 29 29 29 29 29 30 30 30 30 29 28 28 29 29 29 30 30 31 31 30 29 28 28 28 29 28 28 26 26 25 25 25 25 25 24 24 23 22 21 21 20 20 19 19 19 18 18 18 18 18 18 17 17 17 17 17 17 17 16 16
39 39 38 37 36 35 35 35 35 35 35 35 34 34 34 34 34 34 33 32 31 30 29 29 28 28 28 28 28 28 28 29 29 29 29 28 28 28 28 28 29 29 29 29 29 28 27 27 28 28 29 28 27 26 25 25 24 25 24 24 24 23 22 21 21 20 20 19 19 18 18 18 17 17 17 17 17 17 17 17 16 16 16 16 16 16
39 39 38 37 36 35 35 35 36 36 36 36 35 35 35 35 35 34 33 32 31 30 29 28 28 28 28 28 27 27 28 28 28 28 28 28 27 27 27 28 28 28 27 27 27 26 26 27 28 28 28 27 26 26 25 25 24 24 24 24 23 22 21 21 20 20 19 19 18 18 18 17 17 17 17 17 17 17 16 16 16 16 16 16 16 16
39 39 38 37 36 35 35 36 37 37 37 36 36 36 36 35 35 34 33 31 30 30 29 28 28 27 27 27 27 27 28 28 28 28 28 27 27 27 27 27 27 27 26 26 25 26 26 27 28 28 28 27 26 26 25 25 24 24 24 23 23 22 21 20 20 20 19 19 18 18 17 17 17 17 17 17 16 16 16 16 16 16 16 16 17 17
39 39 38 38 37 36 36 37 37 37 37 37 37 37 36 36 35 34 32 31 31 30 29 28 27 27 26 27 27 27 28 27 27 27 27 27 27 26 27 27 27 26 26 25 26 27 28 28 28 28 27 27 27 26 25 24 24 24 24 23 22 21 21 20 20 19 19 18 18 18 17 17 17 17 17 17 16 16 16 16 16 16 17 17 18 18
39 39 39 38 38 37 37 38 38 38 38 38 38 37 37 36 35 34 33 32 31 30 29 28 27 26 26 27 27 27 27 27 27 27 27 27 27 27 27 27 27 27 26 27 28 29 29 29 29 28 28 27 27 26 25 24 24 23 23 23 22 21 21 20 20 19 19 18 18 17 17 17 17 17 17 16 16 16 16 16 17 17 17 18 18 18
40 40 40 40 39 39 38 38 38 38 38 38 38 38 37 36 35 35 34 33 32 30 29 28 27 27 26 27 27 27 26 26 26 27 27 27 27 27 28 28 28 28 28 28 29 30 30 30 29 28 28 28 27 26 24 24 23 23 23 22 22 21 21 20 19 19 18 18 17 17 17 17 16 16 16 16 16 16 16 17 17 17 17 18 18 18
40 40 41 41 40 40 40 39 39 39 38 38 38 38 38 37 36 35 34 33 32 31 30 28 28 27 27 27 27 26 26 26 27 28 28 28 28 28 28 29 29 29 29 30 30 31 31 30 29 28 28 27 26 25 24 24 23 23 23 22 21 21 20 20 19 19 18 18 17 17 16 16 16 16 16 16 16 17 17 17 17 17 17 17 17 18
40 40 41 41 41 41 41 40 39 39 39 39 38 38 38 37 37 36 35 34 33 32 30 29 28 27 27 27 27 26 26 26 27 28 29 29 29 29 29 29 30 30 30 31 31 31 31 30 29 28 28 27 26 25 24 24 23 23 22 22 21 21 20 20 19 18 18 17 17 16 16 16 16 16 16 17 17 17 17 17 17 17 17 17 18 18
40 40 41 42 42 42 42 41 40 39 39 39 38 38 38 37 37 37 36 35 34 33 31 30 29 28 27 27 27 26 26 26 28 29 30 30 29 29 29 29 29 30 30 30 30 30 29 29 28 28 28 26 25 24 24 24 23 23 22 22 21 21 20 19 19 18 18 17 17 16 16 16 16 16 17 17 17 17 17 17 17 17 17 18 18 18
40 40 41 42 42 43 43 42 41 40 39 39 38 38 38 38 37 37 36 35 34 33 32 31 29 28 28 27 27 27 26 27 28 29 30 29 29 29 28 28 29 29 29 29 29 29 28 27 27 27 27 25 24 24 24 24 23 23 22 22 21 21 20 19 19 18 18 17 17 16 16 16 16 16 17 17 17 17 17 17 18 18 18 18 18 18
40 40 40 41 42 43 43 43 42 41 40 39 38 38 38 38 38 38 37 36 35 34 32 31 30 29 28 28 27 27 27 27 28 29 30 29 28 28 28 27 27 27 27 27 27 27 27 27 27 27 26 25 24 24 24 24 23 23 22 22 21 20 20 19 19 18 18 17 17 17 16 16 16 17 17 17 17 18 18 18 18 18 18 18 19 19
41 40 40 40 41 42 43 43 42 41 40 39 39 38 38 38 38 38 37 37 36 34 33 32 31 30 29 28 28 27 28 28 29 29 29 29 28 27 26 26 26 26 26 26 26 26 27 27 27 26 25 24 24 24 24 23 23 23 22 21 21 20 20 19 18 18 18 17 17 17 17 17 17 17 18 18 18 18 18 18 18 18 19 19 19 20
41 40 39 39 40 41 42 43 43 42 41 40 39 38 38 39 39 39 38 37 36 35 33 32 31 30 29 29 28 28 28 29 29 29 29 28 27 27 26 25 25 25 25 25 26 27 27 26 25 25 25 24 24 24 24 23 23 23 22 21 21 20 19 19 18 18 18 18 18 18 18 18 18 18 18 18 18 18 18 19 19 19 20 20 20 20
41 39 38 38 39 40 41 42 43 42 42 41 40 39 39 39 39 39 39 38 37 35 34 32 31 30 30 29 29 29 29 29 29 29 28 28 27 26 25 25 25 25 25 26 27 27 26 25 25 24 25 25 25 24 24 24 23 23 22 21 20 20 19 19 18 18 18 18 18 18 18 18 18 18 19 19 19 19 19 19 20 20 20 21 21 21
40 39 37 37 38 39 40 42 42 43 42 42 41 40 40 40 40 40 40 39 37 36 34 33 32 31 30 29 29 29 29 29 29 28 27 27 27 26 25 25 25 26 27 27 27 26 25 25 25 25 25 25 25 25 24 24 23 23 22 21 20 19 19 19 19 19 18 18 18 18 18 19 19 19 19 19 19 20 20 20 21 21 21 21 20 20
39 38 37 36 37 38 40 41 42 43 43 42 41 41 41 41 41 41 40 39 37 36 34 33 32 31 30 30 30 30 30 29 28 28 27 27 26 26 26 26 26 27 28 28 27 26 25 25 25 25 26 26 26 25 25 24 23 22 21 20 19 19 19 19 19 19 19 19 19 19 19 19 19 19 20 20 20 21 21 21 21 21 20 20 19 18
38 37 36 36 37 38 39 40 42 43 43 43 42 42 41 41 41 41 40 39 38 36 34 33 32 31 30 30 30 30 30 29 28 27 27 27 26 26 26 26 27 28 28 27 26 25 25 25 26 26 26 26 25 25 24 24 23 22 21 20 20 20 20 19 19 19 19 19 19 19 19 19 19 20 20 20 21 21 21 21 20 19 19 18 17 17
37 37 36 36 37 38 39 40 41 42 43 43 43 43 42 41 41 41 41 40 38 36 34 33 32 31 30 30 30 30 29 29 28 27 27 27 26 26 26 27 28 28 27 26 25 25 26 26 26 26 26 26 25 24 24 23 22 21 20 20 20 20 19 19 19 19 19 19 19 19 19 20 20 20 21 21 21 20 20 19 19 18 17 16 16 16
37 36 36 37 37 38 39 40 41 42 42 43 43 43 43 42 42 42 42 40 39 36 35 33 32 31 31 30 30 30 29 28 28 27 27 27 27 27 27 28 28 28 27 26 26 26 26 27 26 26 26 26 25 24 23 23 22 21 20 20 20 19 19 19 19 19 19 19 20 20 20 20 21 21 21 20 20 19 19 18 17 16 16 15 15 15
36 36 37 37 37 38 39 40 40 41 42 43 44 44 43 42 42 41 41 40 38 37 35 33 32 31 30 30 29 29 28 28 28 27 27 27 28 28 28 28 28 27 27 26 26 27 27 26 26 26 26 25 25 24 23 22 22 21 21 20 20 19 20 20 20 20 20 20 20 20 21 21 21 21 20 20 19 18 17 16 16 15 15 15 15 16
36 36 36 36 37 37 38 39 40 41 42 43 43 43 42 41 40 40 39 39 38 36 34 33 32 30 30 29 29 28 28 27 27 28 28 28 28 28 29 28 28 27 27 27 27 27 27 27 26 26 25 25 24 24 23 22 22 21 21 20 20 20 20 20 20 20 20 21 21 21 21 21 21 20 20 19 18 17 16 16 15 15 15 15 15 16
36 36 36 36 37 37 38 39 40 41 42 43 43 43 41 39 38 38 39 39 38 36 34 32 31 30 29 28 28 27 27 27 27 28 28 28 28 28 28 28 27 27 27 27 27 27 27 27 26 26 25 25 24 24 23 22 22 21 21 21 21 21 21 21 21 21 21 21 21 21 21 21 20 20 19 18 18 17 16 15 15 15 15 15 16 16
36 36 36 36 37 38 39 39 39 40 41 42 42 41 40 38 37 37 38 38 37 35 33 31 30 29 28 28 27 27 27 27 28 28 29 29 29 28 28 27 27 27 27 27 27 27 27 27 26 26 25 25 24 23 23 22 22 21 21 21 22 22 22 22 22 22 22 21 21 21 21 20 20 19 19 18 17 16 16 15 15 15 16 16 16 16
36 36 37 37 38 38 39 39 39 40 40 41 40 39 38 37 36 37 38 37 36 34 32 30 29 28 27 27 26 26 27 27 28 29 30 30 29 28 28 27 27 27 27 27 27 28 28 27 27 26 26 25 24 23 23 22 22 22 22 22 23 23 23 23 23 22 22 21 21 21 20 20 20 19 18 17 17 16 16 16 16 16 16 16 16 17
36 36 37 38 38 38 38 38 38 39 39 39 38 37 36 36 36 37 37 36 34 32 30 29 28 27 26 26 26 27 27 28 29 30 30 29 29 28 28 28 28 28 28 28 28 28 28 28 27 26 26 25 24 23 23 23 23 23 23 23 23 23 24 23 23 22 22 21 21 20 20 20 19 19 18 17 17 16 16 16 17 17 17 17 17 18
36 37 37 37 38 38 37 37 37 37 37 37 36 35 35 35 36 36 36 35 33 31 30 28 27 26 26 26 27 27 28 29 30 30 29 29 28 28 28 28 28 28 29 29 29 29 28 27 27 26 25 25 24 24 23 23 23 24 23 24 24 24 24 23 23 22 21 21 20 20 20 20 19 19 18 17 17 17 17 17 18 18 18 18 19 19
Wind_Direction
282 281 280 279 279 279 279 280 281 281 282 282 282 281 280 279 278 278 277 277 276 275 274 272 270 268 266 265 265 265 265 266 268 269 271 271 272 271 270 269 268 267 267 266 266 266 267 267 267 267 267 267 266 266 266 266 267 268 268 268 266 264 263 266 270 273 275 276 276 275 273 273 273 272 271 268 266 264 262 259 257 254 253 251 250 249
282 281 280 280 279 279 279 280 280 281 282 282 282 282 281 280 279 278 277 276 275 273 271 270 268 267 267 267 267 267 267 266 267 268 269 270 271 271 270 269 268 267 266 266 266 266 266 267 267 267 267 266 266 266 266 266 267 269 269 268 266 264 264 267 270 273 275 275 274 273 271 270 270 271 270 269 267 265 262 259 256 253 251 248 245 243
281 280 280 280 279 279 279 280 281 281 282 282 283 282 281 280 279 278 276 274 273 271 270 269 269 269 270 271 271 271 271 269 268 268 269 270 271 272 271 269 268 266 266 265 265 266 266 266 266 266 266 266 266 266 265 266 267 268 269 268 266 265 266 270 272 274 275 274 273 271 269 268 268 268 269 269 267 265 261 257 254 252 250 246 241 239
280 279 279 279 279 279 279 280 281 281 281 282 282 281 280 279 278 277 275 274 272 272 271 271 272 272 273 274 273 273 272 271 270 269 270 271 271 272 271 270 268 266 265 265 265 265 265 265 265 266 266 266 265 264 264 264 265 266 267 266 266 268 271 273 274 274 274 274 272 270 267 265 265 267 268 268 268 265 261 256 252 250 249 245 241 238
278 278 277 277 277 277 278 278 278 278 279 279 279 279 278 278 277 276 276 275 274 274 274 274 274 274 274 273 272 271 270 269 269 269 269 269 270 270 270 269 267 266 265 264 264 263 263 264 264 264 265 264 264 263 262 262 263 264 265 265 267 270 273 274 274 274 274 273 271 268 265 263 263 265 266 267 267 266 262 257 251 248 247 245 241 237
276 276 276 275 275 275 275 275 275 276 276 277 277 277 277 277 277 277 277 277 277 276 276 275 274 273 272 271 270 269 268 267 267 267 267 267 267 267 266 266 265 265 264 263 262 262 262 262 263 263 263 263 262 262 261 261 262 263 264 266 269 272 273 273 273 273 273 272 271 268 265 263 262 263 265 266 266 265 262 258 252 247 245 243 240 236
274 273 273 273 273 273 272 273 273 274 276 276 277 277 277 277 277 277 277 277 277 276 275 274 273 271 270 269 268 267 266 265 265 265 265 264 264 263 263 263 263 263 262 261 261 261 261 262 263 263 263 263 262 262 261 261 262 263 265 268 271 271 271 270 270 271 272 272 271 269 266 263 262 262 263 264 264 263 261 257 251 246 243 241 238 235
271 271 270 270 270 270 271 271 273 274 276 277 277 277 277 277 277 277 277 276 275 275 274 272 271 269 268 267 267 266 265 265 264 264 264 263 263 262 262 262 262 262 261 261 261 261 262 263 264 264 264 263 262 262 261 262 264 266 269 271 270 269 268 268 268 269 270 271 270 269 267 264 262 261 261 262 262 261 258 254 249 245 241 238 237 235
268 268 268 267 267 268 270 271 272 273 275 276 277 277 277 276 276 276 276 275 275 274 273 271 270 268 267 266 266 266 265 265 264 264 264 264 264 263 263 262 262 261 261 260 260 260 261 262 263 264 264 264 263 263 263 265 268 270 271 270 268 266 265 265 266 268 269 269 269 269 267 264 262 260 260 261 261 259 256 251 247 242 239 236 235 233
265 265 265 265 265 266 268 270 271 273 274 275 276 276 276 276 275 275 274 274 274 273 272 271 269 268 267 265 265 265 265 265 264 264 265 265 265 265 264 263 262 261 260 259 258 257 258 260 261 263 263 263 263 264 266 268 270 270 269 267 264 263 262 263 264 265 267 268 268 268 266 263 261 260 260 260 259 256 253 248 244 239 236 234 233 232
263 263 263 263 263 264 265 268 270 272 273 274 275 276 276 276 275 274 273 272 272 272 271 270 269 268 266 265 264 263 264 264 265 266 266 266 266 266 265 263 262 260 259 258 257 256 256 258 259 261 262 262 263 265 266 267 268 267 265 262 261 260 260 261 262 264 265 267 267 267 265 262 259 258 258 258 257 254 249 245 241 237 234 233 232 231
260 260 260 261 261 262 264 266 268 270 271 273 274 275 275 274 273 272 271 271 270 270 270 269 269 267 266 264 263 262 262 263 265 266 267 267 267 266 265 263 261 259 258 257 256 256 257 258 259 259 260 261 262 263 264 264 263 262 260 259 258 258 259 260 261 263 265 266 267 266 263 260 258 257 257 256 254 250 246 241 238 235 233 232 231 231
259 258 259 259 260 261 263 264 267 269 271 272 273 273 272 271 270 269 269 269 269 269 268 268 267 266 265 263 262 262 262 262 263 265 266 266 267 266 266 264 261 259 257 257 257 257 257 258 258 259 260 260 261 261 261 260 260 258 257 256 256 256 257 259 261 263 265 266 266 263 260 257 256 256 255 253 250 246 242 238 235 233 231 231 231 231
258 258 258 258 259 260 262 264 266 268 271 272 272 271 270 268 267 267 267 267 267 267 267 266 266 265 263 262 261 261 261 261 261 263 264 266 266 266 265 264 261 259 258 258 257 257 258 258 258 259 260 260 260 260 260 259 258 256 255 254 254 255 257 259 261 264 265 265 263 260 257 255 255 254 253 250 246 242 238 235 232 231 230 230 231 231
257 257 257 257 258 260 261 263 266 268 271 271 271 269 268 267 266 265 265 265 265 265 264 264 264 263 262 261 260 260 260 260 260 261 262 263 264 264 264 262 261 260 259 259 258 258 258 258 258 259 260 260 260 260 259 258 256 254 252 252 253 254 257 260 263 264 265 263 259 256 254 254 253 252 250 246 242 238 235 232 231 230 230 230 230 231
257 256 256 257 258 260 262 264 266 268 270 270 269 268 267 265 264 263 263 262 262 262 262 263 263 262 262 261 260 260 260 259 259 259 259 259 260 261 261 260 259 259 259 258 258 257 257 258 258 259 260 260 260 259 259 257 254 252 251 251 253 256 259 262 264 264 262 258 255 253 252 252 252 250 247 242 238 235 232 231 229 229 229 229 230 230
257 256 256 257 259 260 262 264 266 268 269 269 267 266 265 264 263 262 261 261 261 260 261 261 261 261 262 262 261 261 261 260 259 257 256 255 256 257 258 258 257 257 257 257 257 256 256 257 258 259 260 260 259 259 258 257 255 254 254 256 258 261 264 265 265 262 258 253 251 251 251 251 249 247 243 239 235 233 231 230 229 229 229 229 229 230
258 257 257 258 259 260 262 264 265 267 267 267 266 264 263 262 261 261 260 260 260 260 260 260 259 259 260 263 263 262 262 261 260 258 256 255 255 256 257 257 257 257 257 256 256 255 254 255 257 259 261 261 260 259 258 258 259 260 261 263 265 267 267 266 263 258 254 250 249 249 249 248 246 243 239 236 233 231 230 229 229 229 229 229 229 230
259 258 258 259 259 261 262 263 264 265 265 264 263 261 260 260 260 260 260 261 261 261 261 260 259 258 258 260 261 262 262 262 262 260 258 257 257 258 258 258 257 257 256 255 253 252 252 253 257 260 263 263 262 260 260 260 262 263 266 267 268 268 267 264 260 255 251 249 249 248 247 245 242 239 236 233 232 230 230 229 229 229 229 229 230 230
260 260 259 260 260 261 261 262 262 262 262 260 259 258 258 258 259 259 260 261 262 262 262 261 260 258 258 257 258 259 260 261 262 262 261 260 260 260 260 259 257 256 254 252 250 249 250 253 257 262 264 264 263 262 261 262 263 265 266 267 267 266 263 260 256 253 250 249 248 246 244 241 238 236 233 231 230 230 229 229 229 229 229 230 230 230
261 261 260 260 260 260 260 261 260 259 258 257 256 256 257 257 258 259 260 261 261 261 261 260 259 258 257 256 257 258 259 261 262 262 262 261 260 260 260 258 256 253 251 249 248 248 250 255 259 263 264 263 263 262 263 263 264 265 265 265 264 262 259 256 253 251 249 248 246 243 241 238 235 233 231 230 229 229 229 229 229 229 229 230 230 231
261 261 260 260 259 259 260 259 258 257 255 255 254 255 255 256 257 258 259 259 259 259 259 259 258 257 257 256 256 257 259 260 261 261 261 260 259 260 259 258 255 252 249 248 249 250 253 257 261 262 262 262 262 262 263 264 265 265 263 262 260 258 256 253 251 249 247 245 243 240 237 235 233 231 230 229 229 229 229 229 229 229 229 230 230 231
261 261 260 259 259 258 258 258 257 255 254 253 253 253 254 255 256 256 257 257 257 257 257 257 257 257 257 257 257 258 259 260 260 260 260 259 259 259 259 257 255 252 250 249 250 252 255 257 259 260 259 260 260 262 264 265 265 263 261 258 256 254 253 251 249 246 244 242 239 237 234 232 231 230 229 229 229 229 229 229 229 229 229 229 229 230
260 260 259 258 258 257 257 257 256 254 253 252 252 252 253 254 254 255 255 255 255 256 257 257 257 257 258 258 259 259 259 260 260 260 260 259 259 259 258 257 255 252 251 250 251 252 254 255 256 256 257 258 260 262 264 265 263 261 258 255 253 252 250 248 246 243 240 238 235 233 232 230 230 229 229 229 229 229 229 229 229 229 228 228 228 228
259 258 258 257 256 256 255 255 255 254 252 251 251 251 251 252 253 253 254 254 255 255 256 257 257 258 258 259 260 260 261 261 260 260 260 259 259 258 257 256 254 253 251 251 250 251 251 252 252 253 255 257 259 262 264 263 261 258 255 253 251 249 247 245 242 239 236 234 232 231 230 229 229 228 228 228 228 228 227 227 227 227 226 226 225 225
259 257 256 255 254 253 253 253 253 252 251 250 249 249 250 251 251 252 253 253 254 255 256 257 258 258 259 260 261 261 261 261 260 260 259 258 258 257 256 255 253 251 250 249 249 248 248 248 249 251 253 256 260 262 263 261 258 255 252 250 248 246 243 241 238 235 233 231 229 229 228 228 228 227 227 227 226 226 225 224 224 224 223 223 223 224
258 256 255 253 251 251 251 251 251 251 250 249 248 248 249 250 251 251 252 253 254 255 255 256 257 258 259 260 260 261 260 259 259 259 258 257 256 255 255 254 252 249 247 247 246 246 246 247 248 250 253 257 260 262 261 258 255 252 249 247 245 242 239 236 234 232 230 228 227 227 226 226 226 225 225 224 223 223 222 222 222 222 222 223 225 227
257 255 253 251 249 248 249 250 250 250 249 248 248 248 248 249 250 251 252 252 253 253 254 255 256 258 259 260 260 259 259 258 258 258 258 257 255 254 254 252 250 248 245 244 244 244 245 246 248 250 254 257 259 260 258 255 252 248 246 243 241 238 235 232 231 229 228 226 225 224 223 223 222 222 222 221 221 220 220 220 221 223 225 227 229 232
256 254 252 250 247 246 247 248 249 250 249 248 247 247 247 248 249 250 250 251 251 251 252 253 255 257 259 260 260 259 259 258 258 258 258 257 256 255 254 251 249 247 244 243 243 244 245 246 248 251 254 256 258 257 254 251 248 245 242 239 236 233 231 229 228 227 226 224 223 221 219 218 218 218 218 219 219 220 221 223 225 228 230 232 233 235
254 252 250 248 246 245 246 247 249 249 248 248 247 246 247 247 248 248 249 248 249 249 251 252 255 257 259 260 260 260 260 260 260 259 258 257 255 255 253 251 248 246 243 242 242 244 245 247 248 251 253 255 255 253 250 247 244 241 238 235 232 230 228 227 226 225 224 222 220 218 215 214 214 215 216 219 221 223 226 228 230 232 234 235 235 236
252 250 248 247 245 244 245 246 248 248 248 247 246 246 246 246 246 247 247 247 248 248 249 251 253 256 258 261 261 261 261 261 260 259 258 256 255 254 252 250 248 246 244 242 242 244 245 247 248 250 251 252 252 250 246 242 239 236 234 231 229 227 225 224 223 222 221 219 216 214 213 212 213 215 218 222 226 229 231 233 234 234 235 235 235 235
251 249 247 245 244 243 244 245 247 248 248 247 246 246 245 245 246 246 246 247 247 247 248 249 251 254 257 260 261 261 260 259 257 257 255 254 253 252 250 249 247 245 244 242 241 243 244 246 247 248 249 249 248 245 241 238 235 232 230 228 226 224 223 222 221 219 217 215 213 212 212 213 216 220 224 228 232 233 235 235 235 234 234 234 234 233
251 249 247 245 243 243 243 244 246 247 248 247 246 246 245 245 245 245 245 246 246 246 247 248 250 253 256 258 260 260 259 256 255 254 253 252 251 250 249 248 246 245 243 242 241 241 242 244 245 246 247 246 244 240 237 234 231 229 227 225 223 222 221 219 217 215 214 212 212 213 215 218 223 227 231 234 235 236 235 235 234 233 233 233 233 233
251 249 246 244 243 242 242 243 245 247 248 247 246 245 245 245 245 245 245 245 245 246 247 248 249 252 255 258 259 259 258 255 254 253 253 251 251 250 249 247 245 244 243 241 240 240 240 241 243 244 244 243 239 236 232 230 228 226 224 222 221 220 218 216 214 213 212 212 213 216 220 225 229 233 236 237 237 236 235 234 233 233 233 233 233 233
251 249 246 244 242 241 241 242 244 247 248 248 247 246 245 244 244 244 245 245 245 246 246 247 249 251 254 257 258 259 257 255 254 253 252 251 250 249 248 246 245 243 242 240 239 239 238 239 240 241 240 238 235 231 228 226 225 223 221 220 219 217 216 214 212 212 212 214 216 220 225 229 233 236 237 237 236 235 234 233 233 233 233 234 234 235
251 249 247 244 242 240 240 241 243 246 248 249 248 246 245 244 244 244 244 244 245 245 246 247 249 251 253 256 258 258 257 255 254 253 253 252 250 248 246 245 243 241 240 238 237 237 236 237 237 236 235 233 230 227 225 223 222 220 219 217 216 215 213 212 212 212 214 217 220 224 228 231 234 236 236 235 234 234 233 233 233 234 234 235 236 237
250 249 247 245 242 240 240 240 242 245 248 250 249 247 245 244 244 244 244 244 244 245 246 247 249 251 253 256 257 258 257 256 255 255 254 253 251 248 245 243 241 239 237 236 235 235 235 234 233 231 229 228 226 224 222 220 219 218 216 215 214 213 212 212 213 214 217 220 224 227 230 232 234 235 235 234 234 234 233 234 235 236 237 238 239 240
250 250 248 246 243 241 240 240 242 244 248 250 250 248 246 245 244 244 243 243 244 244 245 247 249 251 254 256 258 259 259 258 257 256 255 253 250 246 243 240 238 237 235 234 234 233 232 230 228 226 225 223 222 220 219 217 216 215 214 213 212 211 212 213 215 217 220 224 227 230 232 233 234 235 235 235 235 235 236 237 239 240 240 241 242 242
250 250 249 247 244 241 240 240 241 244 247 249 250 249 247 245 244 243 243 242 243 243 245 246 248 251 253 256 258 260 260 260 259 257 254 250 246 243 239 237 235 234 234 233 232 231 229 226 223 222 221 220 219 217 216 214 213 212 212 211 211 211 213 215 218 221 223 226 229 230 232 234 235 235 236 237 238 239 240 241 242 243 243 243 243 242
250 250 250 248 245 242 241 240 241 243 246 249 250 250 248 246 244 242 242 241 242 243 244 245 248 250 253 256 258 260 261 261 259 256 251 246 242 238 235 233 233 233 233 231 230 227 224 221 220 218 218 217 216 214 213 212 211 210 210 211 212 213 216 218 220 223 226 228 229 231 233 234 236 237 238 240 241 242 243 243 244 244 243 242 241 239
250 250 250 249 246 243 241 241 241 243 245 248 250 250 249 247 244 243 241 241 241 242 243 245 247 249 252 255 257 259 260 260 258 253 248 242 237 234 231 231 231 231 231 229 226 222 219 218 217 216 215 215 214 213 211 210 209 210 210 212 214 216 219 221 223 225 227 229 230 232 234 236 238 240 241 243 244 245 245 244 243 242 241 239 238 237
250 250 250 249 247 244 242 241 241 242 244 247 250 251 250 248 246 244 242 241 240 241 242 244 246 249 252 254 256 257 258 257 254 249 243 238 233 230 229 229 230 229 228 224 220 217 215 215 214 214 213 213 212 211 210 209 209 209 211 213 217 220 222 224 226 227 228 230 232 234 236 238 241 243 244 245 246 246 245 243 240 238 236 235 234 235
249 249 249 248 246 244 242 241 241 242 244 247 249 251 251 250 247 244 242 241 240 240 241 243 245 248 251 254 255 255 254 252 249 243 238 233 229 227 228 229 229 227 224 219 215 213 213 213 212 211 211 211 210 210 209 209 209 211 213 217 221 223 225 226 227 228 229 231 234 237 239 242 244 246 246 246 246 244 242 238 235 233 232 232 233 234
249 249 248 247 246 244 242 241 241 242 244 246 249 250 251 249 247 244 241 240 239 238 239 241 244 247 249 252 254 253 250 247 243 238 233 229 226 226 227 228 227 224 220 215 212 212 212 211 210 209 209 209 208 208 208 209 211 213 217 221 224 225 226 227 228 229 231 234 237 241 243 246 247 247 247 245 243 239 236 233 230 229 230 232 233 235
247 247 247 246 245 244 242 241 241 242 243 245 248 249 250 248 246 243 240 239 237 237 237 239 242 245 248 250 252 250 246 241 236 233 229 226 225 226 227 226 223 219 214 211 210 210 210 209 208 208 208 207 207 207 209 210 213 216 220 222 224 225 226 227 229 231 234 238 242 245 247 248 248 247 245 241 237 233 230 228 228 229 231 233 235 236
246 246 246 246 246 244 243 242 241 242 243 245 247 248 248 247 245 242 240 238 237 236 236 238 240 243 246 248 249 246 241 235 230 228 227 227 226 226 226 224 219 214 210 209 209 208 207 206 206 206 206 207 208 209 211 214 216 219 221 223 223 224 226 229 232 235 239 242 245 247 248 248 246 244 240 236 232 228 227 226 228 230 232 234 236 237
246 246 246 246 246 245 243 242 242 242 243 245 247 247 247 246 244 241 240 238 236 235 235 236 238 241 244 245 244 240 235 230 226 225 226 227 226 225 223 219 214 209 207 207 207 206 205 205 205 206 206 207 209 212 215 217 219 220 221 222 223 225 227 231 235 239 243 246 248 248 248 246 243 239 235 231 227 226 226 227 229 231 233 235 237 238
245 245 246 246 245 244 243 242 242 242 243 245 246 246 246 244 242 240 238 237 236 234 234 235 237 239 241 241 239 235 230 226 225 225 225 225 224 221 218 213 209 206 206 205 205 205 204 205 206 207 208 210 212 214 217 218 219 220 221 222 224 226 230 234 238 243 246 247 248 247 245 242 239 234 230 227 226 226 228 229 231 233 235 237 239 241
244 244 245 245 244 243 242 242 242 242 243 244 245 245 244 242 240 238 237 236 235 233 233 233 234 236 236 235 233 230 226 224 223 223 223 222 219 215 212 209 206 205 204 203 203 204 204 206 207 209 211 212 215 216 218 219 219 220 221 223 226 229 233 237 242 245 247 247 246 244 241 238 234 229 227 226 226 228 230 233 235 237 238 240 242 244
243 243 244 244 243 243 242 241 242 242 243 244 244 243 241 239 238 237 236 235 234 233 232 231 232 232 231 229 228 225 223 223 223 222 221 218 213 209 207 206 205 204 203 202 203 204 205 207 208 210 213 214 216 218 219 219 220 221 223 226 230 233 237 241 244 246 246 245 243 241 237 233 229 226 225 226 228 231 234 236 239 241 243 245 246 248
241 242 243 244 244 243 242 241 241 242 243 244 243 242 239 237 236 236 235 234 233 231 230 229 229 228 226 225 224 223 222 222 221 219 217 213 208 205 204 204 204 203 202 203 204 206 207 208 209 211 213 215 217 218 219 220 222 224 226 230 234 238 241 244 245 245 244 242 240 237 233 229 226 225 225 228 230 234 237 240 243 245 247 249 250 252
Height
3056 3056 3056 3056 3056 3056 3056 3056 3056 3056 3055 3055 3056 3056 3056 3056 3056 3056 3056 3056 3056 3055 3056 3056 3056 3056 3056 3056 3056 3056 3056 3057 3057 3058 3058 3058 3058 3059 3059 3059 3060 3060 3060 3060 3060 3060 3061 3061 3061 3061 3061 3062 3062 3062 3063 3063 3063 3064 3064 3064 3064 3064 3064 3064 3064 3065 3065 3065 3065 3065 3065 3065 3065 3065 3065 3064 3064 3064 3064 3064 3064 3064 3065 3065 3066 3066
3053 3053 3053 3054 3054 3053 3053 3053 3053 3053 3052 3052 3053 3053 3053 3053 3052 3052 3052 3052 3052 3052 3052 3052 3053 3053 3053 3053 3053 3053 3054 3054 3055 3055 3056 3056 3056 3056 3056 3057 3057 3057 3057 3058 3058 3058 3058 3058 3059 3059 3059 3060 3060 3061 3061 3061 3061 3061 3061 3061 3061 3061 3061 3061 3062 3062 3063 3063 3063 3063 3063 3062 3062 3062 3062 3062 3062 3062 3062 3062 3062 3062 3062 3063 3064 3065
3051 3051 3051 3051 3051 3051 3050 3050 3050 3050 3050 3049 3050 3050 3050 3050 3050 3050 3050 3050 3050 3050 3050 3050 3050 3050 3051 3051 3051 3051 3051 3052 3052 3053 3053 3053 3054 3054 3054 3055 3055 3055 3055 3055 3056 3056 3056 3056 3056 3057 3057 3057 3058 3058 3059 3059 3059 3060 3059 3059 3059 3059 3059 3060 3060 3061 3061 3061 3061 3061 3061 3060 3060 3060 3060 3060 3060 3060 3061 3061 3060 3060 3061 3061 3062 3063
3049 3048 3048 3048 3048 3048 3047 3048 3047 3047 3047 3047 3047 3047 3047 3047 3047 3047 3047 3047 3047 3047 3047 3047 3047 3047 3048 3048 3048 3049 3049 3050 3050 3051 3051 3051 3051 3051 3052 3052 3053 3053 3053 3053 3053 3053 3054 3054 3054 3055 3055 3055 3056 3056 3057 3057 3057 3057 3057 3057 3057 3057 3057 3058 3058 3058 3059 3059 3059 3059 3058 3058 3058 3058 3058 3058 3058 3058 3059 3059 3059 3059 3059 3059 3060 3060
3046 3046 3046 3046 3046 3045 3045 3045 3045 3045 3045 3045 3045 3045 3045 3045 3045 3045 3044 3044 3044 3044 3044 3045 3045 3045 3045 3045 3046 3046 3047 3047 3047 3048 3048 3049 3049 3049 3050 3050 3050 3051 3051 3051 3051 3051 3051 3052 3052 3052 3053 3053 3054 3054 3055 3055 3055 3055 3055 3055 3055 3055 3055 3055 3056 3056 3056 3057 3057 3057 3056 3056 3056 3056 3056 3056 3056 3056 3056 3056 3056 3056 3057 3057 3057 3058
3044 3043 3043 3043 3043 3043 3043 3043 3043 3043 3043 3043 3043 3043 3043 3043 3043 3042 3042 3042 3042 3042 3042 3042 3042 3042 3042 3043 3043 3044 3044 3045 3045 3045 3046 3046 3047 3047 3047 3048 3048 3048 3048 3048 3049 3049 3049 3050 3050 3050 3051 3051 3051 3052 3052 3052 3053 3053 3052 3052 3052 3053 3053 3053 3053 3053 3054 3054 3054 3054 3054 3054 3054 3054 3054 3054 3054 3054 3054 3054 3054 3055 3055 3055 3056 3056
3041 3041 3041 3040 3040 3041 3041 3041 3041 3041 3041 3041 3041 3041 3041 3041 3041 3040 3040 3040 3040 3040 3040 3040 3040 3040 3040 3040 3041 3041 3041 3042 3042 3043 3043 3044 3044 3045 3045 3045 3046 3046 3046 3046 3046 3046 3047 3047 3048 3048 3049 3049 3049 3050 3050 3050 3050 3050 3050 3050 3050 3051 3051 3051 3051 3051 3051 3052 3052 3052 3052 3052 3052 3052 3052 3052 3052 3052 3052 3052 3052 3052 3053 3053 3054 3054
3038 3038 3038 3038 3038 3038 3038 3038 3038 3039 3039 3038 3038 3038 3038 3038 3038 3038 3038 3038 3038 3038 3038 3038 3037 3038 3038 3038 3038 3039 3039 3040 3040 3041 3041 3041 3042 3042 3042 3043 3043 3043 3043 3044 3044 3044 3045 3045 3046 3046 3046 3047 3047 3047 3047 3047 3047 3047 3047 3048 3048 3048 3049 3049 3049 3049 3049 3049 3049 3049 3050 3050 3050 3050 3050 3050 3050 3050 3050 3050 3050 3051 3051 3051 3052 3053
3035 3035 3035 3035 3035 3035 3035 3036 3036 3036 3036 3036 3036 3036 3036 3036 3036 3036 3036 3036 3036 3036 3036 3036 3036 3036 3036 3036 3036 3036 3037 3037 3038 3038 3039 3039 3039 3040 3040 3040 3041 3041 3041 3041 3042 3042 3043 3043 3044 3044 3044 3044 3045 3045 3045 3045 3045 3045 3045 3046 3046 3046 3046 3046 3046 3046 3047 3047 3047 3047 3047 3047 3047 3047 3047 3048 3048 3048 3048 3048 3048 3049 3049 3050 3051 3051
3032 3032 3032 3032 3033 3033 3033 3033 3033 3034 3034 3034 3033 3033 3034 3034 3034 3033 3033 3033 3033 3033 3034 3033 3033 3033 3033 3034 3034 3034 3035 3035 3036 3036 3036 3037 3037 3037 3037 3038 3038 3038 3039 3039 3040 3040 3041 3041 3042 3042 3042 3042 3042 3042 3043 3043 3043 3043 3043 3043 3044 3044 3044 3044 3044 3044 3044 3045 3045 3045 3045 3045 3045 3045 3045 3046 3046 3046 3046 3046 3046 3047 3047 3048 3049 3050
3029 3030 3030 3030 3030 3030 3030 3031 3031 3032 3032 3032 3031 3031 3031 3032 3031 3031 3031 3031 3031 3031 3031 3031 3031 3031 3031 3031 3032 3032 3032 3033 3033 3034 3034 3035 3035 3035 3035 3036 3036 3036 3037 3037 3038 3038 3039 3039 3040 3040 3040 3040 3040 3040 3040 3040 3041 3041 3041 3041 3041 3041 3041 3041 3042 3042 3042 3042 3042 3042 3042 3043 3043 3043 3043 3043 3044 3044 3044 3044 3045 3045 3046 3046 3047 3048
3026 3027 3027 3026 3027 3027 3028 3028 3029 3029 3030 3030 3030 3029 3029 3030 3029 3029 3028 3028 3028 3029 3028 3028 3028 3029 3029 3029 3029 3030 3030 3031 3031 3031 3032 3032 3032 3033 3033 3033 3034 3034 3035 3035 3036 3036 3037 3037 3037 3037 3037 3037 3037 3037 3038 3038 3038 3038 3038 3039 3039 3039 3039 3039 3039 3040 3040 3040 3040 3040 3040 3041 3041 3041 3041 3041 3042 3042 3042 3042 3043 3043 3044 3045 3046 3046
3023 3024 3024 3024 3024 3024 3025 3026 3026 3026 3027 3027 3027 3027 3027 3027 3027 3026 3026 3026 3026 3026 3026 3026 3026 3026 3026 3027 3027 3027 3028 3029 3029 3029 3030 3030 3030 3031 3031 3031 3031 3032 3032 3033 3033 3034 3034 3035 3035 3035 3035 3035 3035 3035 3035 3036 3036 3036 3036 3036 3036 3037 3037 3037 3037 3037 3037 3037 3038 3038 3038 3038 3039 3039 3039 3040 3040 3040 3040 3041 3041 3042 3042 3043 3044 3045
3020 3021 3021 3021 3021 3022 3022 3023 3023 3024 3025 3025 3025 3025 3024 3024 3024 3024 3024 3023 3023 3023 3023 3023 3023 3024 3024 3024 3025 3025 3026 3026 3027 3027 3027 3028 3028 3028 3029 3029 3029 3030 3030 3031 3031 3031 3032 3032 3032 3032 3032 3032 3032 3032 3033 3033 3033 3033 3034 3034 3034 3034 3035 3035 3035 3035 3035 3035 3035 3036 3036 3036 3036 3037 3037 3037 3038 3038 3039 3039 3040 3040 3041 3042 3042 3043
3017 3017 3017 3017 3018 3019 3020 3020 3021 3021 3022 3022 3022 3021 3021 3021 3021 3021 3021 3021 3021 3021 3021 3021 3021 3021 3022 3022 3022 3023 3023 3024 3024 3025 3025 3026 3026 3026 3026 3027 3027 3028 3028 3028 3029 3029 3029 3030 3029 3029 3030 3030 3030 3030 3031 3031 3031 3031 3031 3031 3032 3032 3032 3032 3032 3032 3033 3033 3033 3033 3034 3034 3034 3035 3035 3036 3036 3036 3037 3037 3038 3039 3039 3040 3041 3042
3014 3014 3014 3014 3015 3016 3017 3017 3018 3018 3019 3019 3019 3019 3019 3019 3019 3019 3019 3019 3018 3018 3018 3019 3019 3019 3019 3020 3020 3020 3021 3021 3022 3022 3022 3023 3023 3024 3024 3024 3025 3026 3026 3026 3026 3027 3027 3027 3027 3027 3027 3027 3028 3028 3028 3028 3028 3029 3029 3029 3030 3030 3030 3030 3030 3030 3030 3031 3031 3031 3031 3032 3032 3033 3033 3034 3034 3035 3035 3036 3036 3037 3038 3039 3040 3040
3010 3011 3011 3011 3012 3013 3014 3014 3015 3015 3015 3016 3016 3016 3016 3016 3016 3016 3016 3016 3016 3016 3016 3016 3016 3016 3017 3017 3018 3018 3019 3019 3019 3020 3020 3020 3021 3021 3021 3022 3022 3023 3024 3024 3024 3024 3025 3025 3025 3025 3025 3025 3026 3026 3026 3026 3026 3026 3026 3027 3027 3027 3027 3027 3027 3028 3028 3028 3029 3029 3030 3030 3030 3031 3031 3032 3032 3033 3033 3034 3035 3036 3036 3037 3038 3039
3007 3007 3008 3008 3009 3010 3011 3011 3011 3012 3012 3012 3012 3012 3012 3012 3012 3013 3013 3013 3013 3013 3013 3014 3014 3014 3015 3015 3015 3016 3016 3016 3016 3017 3017 3018 3018 3019 3019 3019 3020 3021 3021 3021 3022 3022 3022 3022 3022 3023 3023 3023 3023 3024 3024 3024 3024 3024 3024 3024 3025 3025 3025 3025 3025 3025 3026 3026 3026 3027 3027 3028 3028 3029 3030 3030 3031 3031 3032 3032 3033 3034 3035 3036 3036 3037
3003 3004 3005 3005 3006 3006 3007 3008 3008 3009 3009 3009 3009 3009 3009 3009 3009 3010 3010 3010 3010 3011 3011 3011 3011 3011 3012 3013 3013 3013 3014 3014 3014 3014 3015 3015 3016 3016 3016 3017 3018 3018 3019 3019 3020 3020 3020 3020 3020 3020 3021 3021 3021 3021 3021 3021 3021 3022 3022 3022 3022 3022 3022 3023 3023 3023 3024 3024 3024 3025 3026 3026 3026 3027 3028 3028 3029 3029 3030 3031 3032 3032 3033 3034 3035 3036
3000 3001 3001 3002 3002 3003 3003 3004 3005 3006 3006 3006 3006 3006 3006 3006 3006 3006 3007 3007 3007 3008 3008 3008 3009 3009 3010 3010 3011 3011 3011 3011 3011 3011 3012 3012 3013 3013 3014 3015 3015 3016 3016 3017 3017 3017 3017 3017 3018 3018 3018 3018 3019 3019 3019 3019 3019 3019 3020 3020 3020 3020 3020 3021 3021 3021 3021 3022 3022 3023 3023 3024 3025 3025 3026 3026 3027 3028 3028 3029 3030 3031 3032 3032 3033 3034
2996 2997 2998 2999 2999 2999 3000 3001 3002 3003 3003 3002 3002 3002 3002 3003 3003 3004 3004 3004 3005 3005 3005 3006 3006 3006 3007 3007 3007 3008 3008 3008 3008 3008 3009 3010 3010 3011 3011 3012 3012 3013 3014 3015 3015 3015 3015 3015 3015 3016 3016 3016 3016 3016 3017 3017 3017 3017 3017 3017 3017 3018 3018 3018 3019 3019 3020 3020 3021 3021 3021 3022 3023 3023 3024 3025 3025 3026 3027 3028 3029 3029 3030 3031 3031 3032
2993 2994 2995 2996 2996 2996 2996 2997 2998 2999 2999 2999 2999 2999 3000 3000 3001 3001 3001 3001 3001 3002 3002 3003 3003 3004 3004 3004 3005 3005 3005 3006 3006 3006 3006 3006 3007 3008 3008 3009 3010 3011 3011 3012 3012 3012 3012 3013 3013 3013 3014 3014 3014 3014 3015 3015 3015 3015 3015 3015 3015 3015 3016 3016 3016 3017 3017 3018 3019 3019 3020 3020 3021 3021 3022 3023 3024 3025 3025 3026 3027 3028 3028 3029 3030 3031
2989 2990 2991 2992 2992 2992 2993 2994 2995 2995 2996 2996 2996 2996 2997 2997 2997 2997 2998 2998 2998 2999 2999 3000 3001 3001 3001 3001 3002 3002 3002 3003 3003 3003 3003 3003 3004 3005 3006 3006 3007 3008 3009 3010 3010 3010 3010 3011 3011 3011 3011 3011 3012 3012 3012 3012 3012 3012 3012 3013 3013 3013 3013 3014 3015 3015 3016 3016 3017 3017 3018 3019 3019 3020 3021 3021 3022 3023 3024 3025 3025 3026 3027 3027 3028 3029
2986 2987 2988 2988 2989 2989 2990 2990 2991 2992 2992 2993 2993 2994 2994 2994 2994 2994 2995 2995 2996 2996 2996 2997 2998 2998 2998 2999 2999 3000 3000 3000 3000 3000 3000 3001 3002 3002 3003 3003 3004 3005 3006 3007 3007 3007 3008 3008 3009 3009 3009 3009 3009 3010 3010 3010 3010 3010 3010 3011 3011 3011 3011 3012 3013 3013 3014 3015 3015 3016 3016 3017 3017 3018 3019 3020 3021 3021 3022 3023 3024 3025 3025 3026 3027 3028
2983 2983 2984 2985 2986 2986 2986 2987 2988 2988 2989 2990 2990 2991 2991 2991 2991 2991 2992 2992 2993 2993 2994 2994 2995 2995 2996 2996 2996 2997 2997 2998 2997 2997 2998 2998 2999 3000 3000 3001 3001 3002 3003 3004 3004 3005 3005 3006 3006 3006 3006 3007 3007 3007 3007 3008 3008 3008 3008 3009 3009 3009 3010 3011 3011 3012 3012 3013 3013 3014 3015 3015 3016 3017 3017 3018 3019 3020 3021 3021 3022 3023 3024 3025 3025 3026
2979 2980 2981 2981 2982 2983 2983 2984 2985 2985 2986 2986 2987 2987 2988 2988 2988 2988 2989 2989 2990 2991 2991 2992 2992 2993 2993 2994 2994 2994 2995 2995 2995 2995 2995 2996 2996 2997 2997 2998 2999 2999 3000 3001 3001 3002 3003 3003 3004 3004 3004 3004 3005 3005 3005 3006 3006 3006 3006 3006 3007 3007 3008 3009 3009 3010 3011 3011 3012 3012 3013 3014 3015 3015 3016 3017 3018 3018 3019 3020 3021 3021 3022 3023 3024 3025
2975 2976 2977 2978 2979 2980 2980 2981 2981 2982 2983 2983 2984 2984 2984 2985 2985 2985 2986 2986 2987 2988 2988 2989 2989 2990 2991 2991 2991 2992 2992 2992 2992 2992 2992 2993 2994 2994 2995 2995 2996 2996 2997 2998 2999 3000 3000 3001 3001 3002 3002 3002 3002 3003 3003 3004 3004 3004 3004 3005 3005 3006 3006 3007 3008 3008 3009 3010 3010 3011 3011 3012 3013 3014 3015 3016 3016 3017 3018 3018 3019 3020 3021 3021 3022 3023
2971 2972 2973 2974 2975 2976 2977 2978 2978 2979 2980 2980 2981 2981 2981 2981 2982 2982 2983 2984 2985 2985 2985 2986 2986 2987 2988 2988 2989 2989 2989 2989 2990 2990 2990 2990 2991 2991 2992 2993 2993 2994 2994 2995 2996 2997 2998 2998 2999 2999 3000 3000 3000 3001 3001 3001 3002 3002 3002 3003 3004 3004 3005 3006 3006 3007 3007 3008 3009 3009 3010 3011 3011 3012 3013 3014 3015 3016 3016 3017 3018 3018 3019 3020 3021 3021
2968 2969 2970 2971 2972 2973 2974 2974 2975 2976 2976 2977 2977 2978 2978 2978 2979 2980 2981 2981 2982 2982 2982 2983 2984 2984 2985 2986 2986 2986 2986 2986 2987 2987 2987 2987 2988 2989 2990 2990 2990 2991 2992 2993 2993 2994 2995 2996 2996 2997 2997 2998 2998 2999 2999 2999 3000 3000 3001 3001 3002 3003 3003 3004 3005 3005 3006 3006 3007 3008 3009 3009 3010 3011 3012 3013 3014 3014 3015 3016 3016 3017 3018 3018 3019 3020
2964 2965 2966 2967 2968 2969 2970 2971 2971 2972 2973 2973 2974 2974 2975 2976 2976 2977 2978 2978 2978 2979 2979 2980 2981 2981 2982 2983 2983 2984 2984 2984 2985 2985 2985 2985 2986 2986 2987 2987 2987 2988 2989 2990 2991 2991 2992 2993 2994 2995 2995 2996 2996 2996 2997 2997 2998 2998 2999 3000 3000 3001 3002 3002 3003 3004 3004 3005 3006 3006 3007 3008 3009 3010 3011 3011 3012 3013 3014 3014 3015 3016 3016 3017 3017 3018
2960 2961 2962 2963 2964 2966 2966 2967 2968 2969 2969 2970 2971 2971 2972 2973 2973 2974 2975 2975 2976 2976 2976 2977 2978 2978 2979 2980 2980 2981 2981 2982 2982 2982 2982 2982 2982 2983 2984 2984 2985 2986 2986 2987 2988 2989 2990 2991 2991 2992 2993 2993 2994 2994 2995 2995 2996 2996 2997 2998 2999 2999 3000 3001 3001 3002 3003 3004 3004 3005 3006 3006 3007 3008 3009 3010 3011 3011 3012 3013 3013 3014 3015 3015 3016 3017
2956 2957 2958 2959 2961 2962 2963 2964 2964 2965 2966 2967 2967 2968 2969 2970 2971 2971 2971 2972 2972 2973 2973 2974 2975 2975 2976 2977 2977 2978 2979 2979 2979 2979 2979 2979 2980 2980 2981 2981 2982 2982 2983 2984 2985 2986 2987 2988 2989 2990 2990 2991 2991 2992 2992 2993 2994 2995 2995 2996 2997 2998 2998 2999 3000 3001 3001 3002 3003 3004 3004 3005 3006 3007 3008 3008 3009 3010 3011 3011 3012 3012 3013 3014 3015 3015
2953 2953 2954 2956 2956 2958 2959 2960 2961 2962 2963 2963 2964 2965 2966 2967 2967 2968 2968 2969 2970 2970 2970 2971 2971 2972 2973 2974 2975 2976 2976 2976 2976 2976 2976 2976 2976 2977 2978 2978 2979 2980 2980 2981 2982 2983 2984 2985 2986 2987 2988 2988 2989 2990 2991 2991 2992 2993 2994 2995 2995 2996 2997 2997 2998 2999 3000 3001 3001 3002 3003 3004 3005 3005 3006 3007 3008 3008 3009 3010 3010 3011 3011 3012 3013 3014
2949 2949 2950 2951 2952 2954 2955 2956 2957 2958 2959 2960 2961 2962 2963 2964 2964 2965 2965 2966 2966 2967 2967 2967 2968 2969 2970 2971 2972 2972 2973 2973 2973 2972 2972 2973 2973 2974 2975 2976 2976 2977 2977 2978 2979 2980 2981 2983 2984 2985 2985 2986 2986 2988 2989 2990 2990 2991 2992 2993 2994 2995 2995 2996 2997 2998 2998 2999 3000 3001 3002 3002 3003 3004 3005 3005 3006 3007 3007 3008 3009 3009 3010 3011 3011 3012
2945 2946 2946 2947 2949 2950 2951 2953 2954 2955 2956 2957 2958 2959 2960 2961 2961 2962 2962 2962 2963 2963 2964 2965 2965 2966 2967 2968 2969 2969 2970 2970 2970 2969 2969 2970 2971 2971 2972 2973 2973 2974 2975 2976 2977 2978 2979 2981 2982 2982 2983 2983 2985 2986 2987 2988 2989 2990 2991 2991 2992 2993 2994 2995 2995 2996 2997 2998 2999 3000 3000 3001 3002 3002 3003 3004 3005 3005 3006 3006 3007 3008 3009 3009 3010 3011
2941 2941 2942 2944 2945 2946 2948 2949 2950 2951 2952 2953 2954 2956 2956 2957 2958 2958 2959 2959 2960 2960 2961 2961 2962 2963 2964 2965 2966 2966 2966 2966 2966 2966 2966 2967 2968 2968 2969 2970 2971 2971 2972 2973 2974 2976 2977 2978 2979 2980 2980 2981 2982 2984 2985 2986 2987 2988 2989 2990 2991 2991 2992 2993 2994 2995 2996 2996 2997 2998 2999 3000 3000 3001 3001 3002 3003 3004 3004 3005 3006 3006 3007 3008 3008 3009
2936 2937 2939 2940 2941 2943 2944 2946 2947 2948 2949 2950 2951 2952 2953 2954 2954 2955 2956 2956 2956 2957 2957 2958 2959 2960 2961 2961 2962 2963 2963 2963 2963 2963 2964 2964 2965 2966 2966 2967 2968 2969 2970 2971 2972 2973 2975 2976 2976 2977 2978 2980 2981 2982 2983 2984 2985 2986 2987 2988 2989 2990 2991 2991 2992 2993 2994 2995 2996 2996 2997 2998 2999 3000 3000 3001 3001 3002 3003 3004 3004 3005 3006 3006 3007 3007
2932 2933 2935 2936 2938 2939 2941 2942 2944 2945 2946 2946 2947 2948 2949 2950 2951 2951 2952 2952 2953 2954 2954 2955 2956 2956 2957 2958 2959 2960 2960 2960 2960 2961 2961 2962 2962 2963 2964 2965 2966 2967 2968 2969 2970 2971 2972 2973 2974 2975 2976 2978 2979 2980 2981 2982 2984 2985 2986 2986 2987 2988 2989 2990 2991 2992 2993 2994 2994 2995 2996 2996 2997 2998 2999 2999 3000 3001 3001 3002 3002 3003 3004 3004 3005 3006
2928 2930 2931 2933 2934 2936 2937 2939 2940 2941 2942 2943 2944 2945 2946 2946 2947 2948 2948 2949 2950 2950 2951 2952 2952 2953 2954 2955 2956 2956 2956 2957 2957 2958 2958 2959 2960 2961 2962 2963 2964 2965 2966 2967 2968 2969 2970 2971 2972 2973 2975 2976 2977 2978 2980 2981 2982 2983 2984 2985 2986 2987 2988 2989 2990 2990 2991 2992 2993 2994 2994 2995 2996 2996 2997 2998 2998 2999 3000 3000 3001 3001 3002 3002 3003 3004
2925 2926 2928 2929 2931 2932 2934 2935 2936 2938 2939 2939 2940 2941 2941 2942 2943 2944 2945 2946 2946 2947 2948 2948 2949 2950 2951 2952 2952 2953 2953 2954 2955 2955 2956 2956 2957 2958 2959 2961 2961 2962 2963 2964 2965 2966 2968 2969 2971 2972 2973 2974 2976 2976 2978 2979 2980 2981 2982 2983 2984 2985 2986 2987 2988 2989 2990 2991 2991 2992 2993 2994 2994 2995 2996 2996 2997 2997 2998 2998 2999 3000 3000 3001 3001 3002
2922 2923 2925 2926 2927 2929 2930 2931 2933 2934 2935 2936 2936 2937 2938 2938 2939 2940 2941 2942 2943 2944 2944 2945 2946 2947 2948 2949 2949 2950 2950 2951 2951 2952 2953 2954 2955 2956 2957 2958 2959 2960 2961 2962 2963 2964 2966 2967 2969 2970 2971 2972 2974 2975 2976 2977 2978 2979 2981 2981 2983 2984 2985 2986 2986 2987 2988 2989 2990 2991 2991 2992 2993 2993 2994 2995 2995 2996 2996 2996 2997 2998 2998 2999 2999 3000
2918 2920 2921 2922 2924 2925 2926 2928 2929 2930 2931 2932 2933 2933 2934 2935 2936 2936 2937 2938 2939 2940 2941 2942 2943 2944 2945 2946 2946 2947 2947 2948 2949 2950 2951 2951 2952 2953 2955 2956 2956 2957 2959 2960 2961 2962 2964 2965 2967 2968 2969 2971 2972 2973 2975 2976 2977 2978 2979 2980 2981 2982 2983 2984 2985 2986 2986 2987 2988 2989 2990 2991 2991 2991 2992 2993 2993 2993 2994 2995 2995 2996 2996 2997 2997 2998
2915 2916 2918 2919 2920 2921 2922 2924 2925 2926 2927 2928 2929 2930 2930 2931 2932 2933 2934 2935 2936 2936 2938 2939 2940 2940 2941 2942 2943 2944 2944 2945 2946 2947 2948 2949 2950 2951 2952 2953 2954 2955 2956 2958 2959 2961 2962 2963 2965 2966 2968 2969 2971 2972 2973 2974 2975 2976 2977 2978 2979 2980 2981 2982 2983 2984 2985 2986 2986 2987 2988 2989 2989 2990 2990 2991 2991 2991 2992 2993 2993 2994 2995 2995 2996 2997
2911 2913 2914 2915 2916 2917 2919 2920 2921 2922 2923 2924 2925 2926 2927 2928 2929 2930 2930 2931 2932 2933 2934 2935 2936 2937 2938 2939 2940 2941 2941 2942 2943 2944 2945 2946 2947 2949 2950 2951 2952 2953 2954 2956 2957 2959 2960 2962 2963 2965 2966 2967 2969 2970 2971 2973 2974 2975 2976 2976 2978 2979 2980 2981 2981 2982 2983 2984 2985 2986 2986 2986 2987 2988 2988 2989 2989 2990 2990 2991 2991 2992 2993 2994 2994 2995
2907 2909 2910 2911 2912 2913 2915 2916 2917 2918 2920 2921 2921 2922 2923 2924 2925 2925 2926 2927 2928 2929 2930 2931 2932 2933 2935 2936 2937 2937 2938 2940 2941 2942 2943 2944 2945 2946 2947 2948 2950 2951 2952 2954 2956 2957 2959 2960 2962 2963 2965 2966 2967 2969 2970 2971 2972 2973 2974 2975 2976 2977 2978 2979 2980 2981 2981 2982 2983 2984 2984 2985 2985 2986 2986 2987 2987 2988 2989 2989 2990 2991 2991 2992 2993 2993
2903 2905 2906 2907 2909 2910 2911 2912 2914 2915 2916 2917 2918 2918 2919 2920 2921 2922 2923 2924 2925 2926 2927 2928 2929 2930 2931 2933 2934 2935 2936 2937 2938 2939 2941 2942 2943 2944 2945 2946 2947 2949 2951 2952 2954 2956 2957 2958 2960 2961 2963 2964 2966 2967 2968 2969 2970 2971 2972 2973 2975 2976 2976 2977 2978 2979 2980 2980 2981 2981 2982 2982 2983 2984 2984 2985 2986 2986 2987 2988 2988 2989 2990 2991 2991 2992
2900 2901 2903 2904 2906 2906 2907 2909 2910 2911 2912 2913 2914 2915 2915 2916 2917 2918 2919 2921 2921 2922 2923 2924 2926 2927 2928 2930 2931 2932 2933 2934 2936 2937 2938 2940 2941 2942 2943 2944 2946 2947 2949 2951 2952 2954 2956 2957 2958 2960 2961 2962 2964 2965 2966 2967 2969 2970 2971 2972 2973 2974 2975 2976 2976 2977 2978 2978 2979 2980 2980 2981 2981 2981 2982 2983 2984 2985 2986 2986 2987 2987 2988 2989 2990 2990
2896 2898 2900 2901 2902 2903 2904 2905 2906 2907 2908 2909 2910 2911 2912 2913 2914 2915 2916 2917 2918 2919 2920 2921 2922 2924 2925 2926 2928 2929 2931 2932 2933 2935 2936 2937 2938 2939 2941 2942 2944 2946 2947 2949 2951 2952 2954 2955 2957 2958 2960 2961 2962 2963 2965 2966 2967 2968 2969 2970 2971 2972 2973 2974 2974 2975 2976 2976 2977 2977 2978 2979 2979 2980 2981 2981 2982 2983 2984 2985 2985 2986 2986 2987 2988 2988
2893 2895 2896 2897 2898 2899 2900 2901 2902 2903 2904 2905 2906 2907 2908 2910 2911 2912 2913 2914 2915 2916 2916 2918 2919 2921 2922 2924 2925 2927 2928 2930 2931 2932 2933 2934 2936 2937 2939 2941 2942 2944 2946 2947 2949 2951 2952 2954 2955 2956 2958 2959 2960 2961 2963 2964 2965 2966 2967 2969 2969 2970 2971 2972 2972 2973 2974 2974 2975 2976 2976 2977 2977 2978 2979 2980 2981 2981 2982 2983 2983 2984 2985 2985 2986 2986
2889 2891 2892 2893 2894 2895 2896 2897 2898 2900 2901 2901 2903 2904 2905 2906 2907 2908 2910 2911 2911 2912 2914 2915 2916 2918 2920 2921 2923 2924 2926 2927 2928 2930 2931 2932 2933 2935 2937 2939 2941 2942 2944 2945 2947 2949 2950 2952 2953 2955 2956 2957 2959 2960 2961 2962 2964 2965 2966 2967 2968 2968 2969 2970 2971 2971 2972 2972 2973 2974 2974 2975 2976 2977 2977 2978 2979 2979 2980 2981 2981 2982 2983 2983 2984 2985
2886 2887 2888 2889 2890 2891 2892 2894 2895 2896 2897 2898 2899 2901 2902 2903 2904 2905 2906 2908 2909 2910 2911 2912 2914 2915 2917 2918 2920 2922 2923 2925 2926 2927 2929 2930 2932 2933 2935 2937 2939 2940 2942 2943 2945 2946 2948 2950 2951 2953 2954 2956 2957 2958 2960 2961 2962 2963 2964 2965 2966 2966 2967 2968 2968 2969 2970 2970 2971 2972 2972 2973 2974 2975 2976 2976 2977 2978 2978 2979 2980 2980 2981 2981 2982 2982